Location: Carnières
(50.1682°N, 3.3474°E)
Time: 05:25:44
(UTC+00:00)

MOZ.5/SAFIR/RUBIN 5/SL-8 - Pass Details

Date: 13 August 2024
Orbit: 671 x 698 km, 98.3° (Epoch: 08 September)

Event Time Altitude Azimuth Distance (km) Brightness Sun altitude
Exits shadow 00:39:58 35° 112° (ESE) 1,123 4.7 -24.4°
Maximum altitude 00:41:23 45° 68° (ENE) 944 4.6 -24.3°
Drops below altitude 10° 00:45:54 10° 356° (N) 2,170 7.3 -24.2°
Sets 00:48:14 0° 351° (N) 3,094 8.2 -24.1°
